| time (UTC) | temp F | wind direction | speed knots | gust knots | rain 1hr in | rain 24hr in | rain mn in | humidity % | barometer mb |
| 20260510191031 | 102 | 0.0 | 0.0 | 0.00 | 0.00 | 0.00 | 8 | 1010.7 | |
| 20260510190031 | 102 | 0.0 | 0.0 | 0.00 | 0.00 | 0.00 | 8 | 1010.7 | |
| 20260510185030 | 101 | 0.0 | 0.0 | 0.00 | 0.00 | 0.00 | 8 | 1010.7 | |
| 20260510183956 | 101 | 0.0 | 0.0 | 0.00 | 0.00 | 0.00 | 8 | 1011.0 | |
| 20260510182924 | 101 | 0.0 | 0.0 | 0.00 | 0.00 | 0.00 | 8 | 1011.0 | |
| 20260510181851 | 100 | 0.0 | 0.0 | 0.00 | 0.00 | 0.00 | 8 | 1011.0 | |
| 20260510180849 | 100 | 0.0 | 0.0 | 0.00 | 0.00 | 0.00 | 10 | 1011.4 | |
| 20260510175847 | 98 | 0.0 | 0.0 | 0.00 | 0.00 | 0.00 | 10 | 1011.4 | |
| 20260510174846 | 98 | 0.0 | 0.0 | 0.00 | 0.00 | 0.00 | 10 | 1011.4 | |
| 20260510173846 | 98 | 0.0 | 0.0 | 0.00 | 0.00 | 0.00 | 11 | 1011.4 | |
| 20260510172845 | 97 | 0.0 | 0.0 | 0.00 | 0.00 | 0.00 | 10 | 1011.4 | |
| 20260510171844 | 96 | 0.0 | 0.0 | 0.00 | 0.00 | 0.00 | 11 | 1011.4 | |
| 20260510170842 | 96 | 0.0 | 0.0 | 0.00 | 0.00 | 0.00 | 12 | 1011.0 | |
| 20260510165841 | 95 | 0.0 | 0.0 | 0.00 | 0.00 | 0.00 | 12 | 1011.0 | |
| 20260510164840 | 95 | 0.0 | 0.0 | 0.00 | 0.00 | 0.00 | 12 | 1011.0 | |
| 20260510163839 | 95 | 0.0 | 0.0 | 0.00 | 0.00 | 0.00 | 12 | 1011.0 | |
| 20260510162838 | 94 | 0.0 | 0.0 | 0.00 | 0.00 | 0.00 | 12 | 1011.0 | |
| 20260510161806 | 94 | 0.0 | 0.0 | 0.00 | 0.00 | 0.00 | 12 | 1011.0 | |
| 20260510160805 | 93 | 0.0 | 0.0 | 0.00 | 0.00 | 0.00 | 12 | 1011.0 | |
| 20260510155804 | 92 | 0.0 | 0.0 | 0.00 | 0.00 | 0.00 | 12 | 1010.7 | |
| 20260510154803 | 92 | 0.0 | 0.0 | 0.00 | 0.00 | 0.00 | 12 | 1010.7 | |
| 20260510153802 | 91 | 0.0 | 0.0 | 0.00 | 0.00 | 0.00 | 12 | 1010.7 | |
| 20260510152730 | 91 | 0.0 | 0.0 | 0.00 | 0.00 | 0.00 | 12 | 1010.7 | |
| 20260510151729 | 90 | 0.0 | 0.0 | 0.00 | 0.00 | 0.00 | 12 | 1010.6 | |
| 20260510150728 | 88 | 0.0 | 0.0 | 0.00 | 0.00 | 0.00 | 12 | 1010.6 | |
| 20260510145728 | 87 | 0.0 | 0.0 | 0.00 | 0.00 | 0.00 | 14 | 1010.6 | |
| 20260510144727 | 86 | 0.0 | 0.0 | 0.00 | 0.00 | 0.00 | 15 | 1010.6 | |
| 20260510143655 | 84 | 0.0 | 0.0 | 0.00 | 0.00 | 0.00 | 15 | 1010.5 | |
| 20260510142654 | 82 | 0.0 | 0.0 | 0.00 | 0.00 | 0.00 | 16 | 1010.5 | |
| 20260510141550 | 81 | 0.0 | 0.0 | 0.00 | 0.00 | 0.00 | 19 | 1010.5 | |
| 20260510140518 | 79 | 0.0 | 0.0 | 0.00 | 0.00 | 0.00 | 20 | 1010.4 | |
| 20260510135517 | 78 | 0.0 | 0.0 | 0.00 | 0.00 | 0.00 | 20 | 1010.4 | |
| 20260510134516 | 78 | 0.0 | 0.0 | 0.00 | 0.00 | 0.00 | 21 | 1010.1 | |
| 20260510133515 | 79 | 0.0 | 0.0 | 0.00 | 0.00 | 0.00 | 20 | 1010.2 | |
| 20260510132443 | 80 | 0.0 | 0.0 | 0.00 | 0.00 | 0.00 | 16 | 1009.9 | |
| 20260510131411 | 79 | 0.0 | 0.0 | 0.00 | 0.00 | 0.00 | 16 | 1009.5 | |
| 20260510130338 | 77 | 0.0 | 0.0 | 0.00 | 0.00 | 0.00 | 16 | 1009.1 | |
| 20260510125337 | 76 | 0.0 | 0.0 | 0.00 | 0.00 | 0.00 | 16 | 1009.1 | |
| 20260510124336 | 76 | 0.0 | 0.0 | 0.00 | 0.00 | 0.00 | 16 | 1009.1 | |
| 20260510123335 | 76 | 0.0 | 0.0 | 0.00 | 0.00 | 0.00 | 16 | 1009.1 | |
| 20260510122334 | 76 | 0.0 | 0.0 | 0.00 | 0.00 | 0.00 | 16 | 1009.1 | |
| 20260510121334 | 77 | 0.0 | 0.0 | 0.00 | 0.00 | 0.00 | 16 | 1008.8 | |
| 20260510120332 | 77 | 0.0 | 0.0 | 0.00 | 0.00 | 0.00 | 16 | 1009.1 | |
| 20260510115330 | 77 | 0.0 | 0.0 | 0.00 | 0.00 | 0.00 | 15 | 1009.1 | |
| 20260510114328 | 78 | 0.0 | 0.0 | 0.00 | 0.00 | 0.00 | 15 | 1008.8 | |
| 20260510113327 | 79 | 0.0 | 0.0 | 0.00 | 0.00 | 0.00 | 14 | 1008.9 | |
| 20260510112327 | 79 | 0.0 | 0.0 | 0.00 | 0.00 | 0.00 | 14 | 1008.9 | |
| 20260510111326 | 80 | 0.0 | 0.0 | 0.00 | 0.00 | 0.00 | 14 | 1008.9 | |
| 20260510110325 | 80 | 0.0 | 0.0 | 0.00 | 0.00 | 0.00 | 14 | 1008.9 | |
| 20260510105324 | 80 | 0.0 | 0.0 | 0.00 | 0.00 | 0.00 | 14 | 1008.9 | |
| 20260510104324 | 80 | 0.0 | 0.0 | 0.00 | 0.00 | 0.00 | 14 | 1008.9 | |
| 20260510103220 | 80 | 0.0 | 0.0 | 0.00 | 0.00 | 0.00 | 14 | 1008.9 | |
| 20260510102218 | 81 | 0.0 | 0.0 | 0.00 | 0.00 | 0.00 | 14 | 1008.6 | |
| 20260510101216 | 81 | 0.0 | 0.0 | 0.00 | 0.00 | 0.00 | 14 | 1008.6 | |
| 20260510100216 | 80 | 0.0 | 0.0 | 0.00 | 0.00 | 0.00 | 14 | 1008.6 | |
| 20260510095214 | 80 | 0.0 | 0.0 | 0.00 | 0.00 | 0.00 | 14 | 1008.2 | |
| 20260510094213 | 80 | 0.0 | 0.0 | 0.00 | 0.00 | 0.00 | 14 | 1008.2 | |
| 20260510093141 | 80 | 0.0 | 0.0 | 0.00 | 0.00 | 0.00 | 14 | 1008.2 | |
| 20260510092140 | 80 | 0.0 | 0.0 | 0.00 | 0.00 | 0.00 | 14 | 1008.2 | |
| 20260510091139 | 80 | 0.0 | 0.0 | 0.00 | 0.00 | 0.00 | 14 | 1008.2 | |
| 20260510090138 | 80 | 0.0 | 0.0 | 0.00 | 0.00 | 0.00 | 14 | 1007.9 | |
| 20260510085106 | 81 | 0.0 | 0.0 | 0.00 | 0.00 | 0.00 | 14 | 1007.9 | |
| 20260510084105 | 81 | 0.0 | 0.0 | 0.00 | 0.00 | 0.00 | 14 | 1007.9 | |
| 20260510083105 | 82 | 0.0 | 0.0 | 0.00 | 0.00 | 0.00 | 14 | 1007.9 | |
| 20260510082104 | 82 | 0.0 | 0.0 | 0.00 | 0.00 | 0.00 | 14 | 1007.9 | |
| 20260510081103 | 83 | 0.0 | 0.0 | 0.00 | 0.00 | 0.00 | 12 | 1007.9 | |
| 20260510075101 | 83 | 0.0 | 0.0 | 0.00 | 0.00 | 0.00 | 12 | 1007.9 | |
| 20260510074101 | 83 | 0.0 | 0.0 | 0.00 | 0.00 | 0.00 | 12 | 1007.9 | |
| 20260510073059 | 83 | 0.0 | 0.0 | 0.00 | 0.00 | 0.00 | 12 | 1007.9 | |
| 20260510072058 | 84 | 0.0 | 0.0 | 0.00 | 0.00 | 0.00 | 12 | 1007.9 | |
| 20260510071057 | 84 | 0.0 | 0.0 | 0.00 | 0.00 | 0.00 | 12 | 1007.9 | |
| 20260510070056 | 84 | 0.0 | 0.0 | 0.00 | 0.00 | 0.00 | 12 | 1007.9 | |
| 20260510065055 | 85 | 0.0 | 0.0 | 0.00 | 0.00 | 0.00 | 12 | 1007.9 | |
| 20260510064054 | 85 | 0.0 | 0.0 | 0.00 | 0.00 | 0.00 | 12 | 1007.9 | |
| 20260510063052 | 86 | 0.0 | 0.0 | 0.00 | 0.00 | 0.00 | 12 | 1007.9 | |
| 20260510062051 | 86 | 0.0 | 0.0 | 0.00 | 0.00 | 0.00 | 12 | 1007.9 | |
| 20260510061019 | 87 | 0.0 | 0.0 | 0.00 | 0.00 | 0.00 | 12 | 1007.6 | |
| 20260510060018 | 88 | 0.0 | 0.0 | 0.00 | 0.00 | 0.00 | 12 | 1007.6 | |
| 20260510054945 | 89 | 0.0 | 0.0 | 0.00 | 0.00 | 0.00 | 12 | 1007.6 | |
| 20260510053912 | 89 | 0.0 | 0.0 | 0.00 | 0.00 | 0.00 | 11 | 1007.6 | |
| 20260510052912 | 90 | 0.0 | 0.0 | 0.00 | 0.00 | 0.00 | 11 | 1007.2 | |
| 20260510051911 | 90 | 0.0 | 0.0 | 0.00 | 0.00 | 0.00 | 11 | 1007.2 | |
| 20260510050909 | 90 | 0.0 | 0.0 | 0.00 | 0.00 | 0.00 | 11 | 1007.2 | |
| 20260510045908 | 90 | 0.0 | 0.0 | 0.00 | 0.00 | 0.00 | 11 | 1007.1 | |
| 20260510044907 | 90 | 0.0 | 0.0 | 0.00 | 0.00 | 0.00 | 11 | 1007.2 | |
| 20260510043905 | 90 | 0.0 | 0.0 | 0.00 | 0.00 | 0.00 | 11 | 1006.8 | |
| 20260510042904 | 91 | 0.0 | 0.0 | 0.00 | 0.00 | 0.00 | 10 | 1006.8 | |
| 20260510041903 | 91 | 0.0 | 0.0 | 0.00 | 0.00 | 0.00 | 10 | 1006.8 | |
| 20260510040902 | 92 | 0.0 | 0.0 | 0.00 | 0.00 | 0.00 | 10 | 1006.8 | |
| 20260510035902 | 93 | 0.0 | 0.0 | 0.00 | 0.00 | 0.00 | 10 | 1006.8 | |
| 20260510034901 | 94 | 0.0 | 0.0 | 0.00 | 0.00 | 0.00 | 10 | 1006.5 | |
| 20260510033900 | 94 | 0.0 | 0.0 | 0.00 | 0.00 | 0.00 | 10 | 1006.4 | |
| 20260510032859 | 95 | 0.0 | 0.0 | 0.00 | 0.00 | 0.00 | 10 | 1006.4 | |
| 20260510031858 | 95 | 0.0 | 0.0 | 0.00 | 0.00 | 0.00 | 10 | 1006.1 | |
| 20260510030857 | 95 | 0.0 | 0.0 | 0.00 | 0.00 | 0.00 | 10 | 1006.1 | |
| 20260510025855 | 96 | 0.0 | 0.0 | 0.00 | 0.00 | 0.00 | 10 | 1006.1 | |
| 20260510024854 | 97 | 0.0 | 0.0 | 0.00 | 0.00 | 0.00 | 10 | 1005.7 | |
| 20260510023853 | 98 | 0.0 | 0.0 | 0.00 | 0.00 | 0.00 | 8 | 1005.7 | |
| 20260510022851 | 99 | 0.0 | 0.0 | 0.00 | 0.00 | 0.00 | 8 | 1005.7 | |
| 20260510021850 | 99 | 0.0 | 0.0 | 0.00 | 0.00 | 0.00 | 8 | 1005.7 | |
| 20260510020818 | 100 | 0.0 | 0.0 | 0.00 | 0.00 | 0.00 | 8 | 1005.7 | |
| 20260510015817 | 101 | 0.0 | 0.0 | 0.00 | 0.00 | 0.00 | 8 | 1005.3 | |
| 20260510014714 | 101 | 0.0 | 0.0 | 0.00 | 0.00 | 0.00 | 8 | 1005.4 | |
| 20260510013642 | 102 | 0.0 | 0.0 | 0.00 | 0.00 | 0.00 | 8 | 1005.4 | |
| 20260510012642 | 102 | 0.0 | 0.0 | 0.00 | 0.00 | 0.00 | 8 | 1005.4 | |
| 20260510011641 | 102 | 0.0 | 0.0 | 0.00 | 0.00 | 0.00 | 8 | 1005.3 | |
| 20260510010640 | 103 | 0.0 | 0.0 | 0.00 | 0.00 | 0.00 | 8 | 1005.3 | |
| 20260510005639 | 103 | 0.0 | 0.0 | 0.00 | 0.00 | 0.00 | 8 | 1005.3 | |
| 20260510004607 | 103 | 0.0 | 0.0 | 0.00 | 0.00 | 0.00 | 8 | 1005.3 | |
| 20260510000951 | 104 | 0.0 | 0.0 | 0.00 | 0.00 | 0.00 | 8 | 1005.7 | |
| 20260509235918 | 104 | 0.0 | 0.0 | 0.00 | 0.00 | 0.00 | 8 | 1005.7 | |
| 20260509234845 | 104 | 0.0 | 0.0 | 0.00 | 0.00 | 0.00 | 8 | 1005.7 | |
| 20260509233813 | 104 | 0.0 | 0.0 | 0.00 | 0.00 | 0.00 | 8 | 1005.7 | |
| 20260509232812 | 104 | 0.0 | 0.0 | 0.00 | 0.00 | 0.00 | 8 | 1005.8 | |
| 20260509231811 | 104 | 0.0 | 0.0 | 0.00 | 0.00 | 0.00 | 8 | 1006.1 | |
| 20260509230810 | 104 | 0.0 | 0.0 | 0.00 | 0.00 | 0.00 | 8 | 1006.1 | |
| 20260509225809 | 105 | 0.0 | 0.0 | 0.00 | 0.00 | 0.00 | 8 | 1006.2 | |
| 20260509224737 | 104 | 0.0 | 0.0 | 0.00 | 0.00 | 0.00 | 8 | 1006.2 | |
| 20260509223736 | 104 | 0.0 | 0.0 | 0.00 | 0.00 | 0.00 | 8 | 1006.2 | |
| 20260509222735 | 105 | 0.0 | 0.0 | 0.00 | 0.00 | 0.00 | 8 | 1006.5 | |
| 20260509221631 | 105 | 0.0 | 0.0 | 0.00 | 0.00 | 0.00 | 8 | 1006.5 | |
| 20260509220630 | 105 | 0.0 | 0.0 | 0.00 | 0.00 | 0.00 | 8 | 1006.9 | |
| 20260509215629 | 105 | 0.0 | 0.0 | 0.00 | 0.00 | 0.00 | 8 | 1007.2 | |
| 20260509214628 | 104 | 0.0 | 0.0 | 0.00 | 0.00 | 0.00 | 8 | 1007.2 | |
| 20260509213626 | 104 | 0.0 | 0.0 | 0.00 | 0.00 | 0.00 | 8 | 1007.6 | |
| 20260509212625 | 104 | 0.0 | 0.0 | 0.00 | 0.00 | 0.00 | 8 | 1007.6 | |
| 20260509211624 | 103 | 0.0 | 0.0 | 0.00 | 0.00 | 0.00 | 10 | 1007.9 | |
| 20260509210624 | 103 | 0.0 | 0.0 | 0.00 | 0.00 | 0.00 | 10 | 1007.9 | |
| 20260509205552 | 103 | 0.0 | 0.0 | 0.00 | 0.00 | 0.00 | 10 | 1007.9 | |
| 20260509204551 | 102 | 0.0 | 0.0 | 0.00 | 0.00 | 0.00 | 10 | 1008.3 | |
| 20260509203550 | 102 | 0.0 | 0.0 | 0.00 | 0.00 | 0.00 | 10 | 1008.3 | |
| 20260509202549 | 102 | 0.0 | 0.0 | 0.00 | 0.00 | 0.00 | 10 | 1008.6 | |
| 20260509201548 | 102 | 0.0 | 0.0 | 0.00 | 0.00 | 0.00 | 11 | 1008.6 | |
| 20260509200547 | 101 | 0.0 | 0.0 | 0.00 | 0.00 | 0.00 | 11 | 1009.0 | |
| 20260509195546 | 101 | 0.0 | 0.0 | 0.00 | 0.00 | 0.00 | 11 | 1009.0 | |
| 20260509194545 | 101 | 0.0 | 0.0 | 0.00 | 0.00 | 0.00 | 12 | 1009.1 | |
| 20260509193544 | 100 | 0.0 | 0.0 | 0.00 | 0.00 | 0.00 | 12 | 1009.4 | |
| 20260509192543 | 100 | 0.0 | 0.0 | 0.00 | 0.00 | 0.00 | 12 | 1009.5 | |
| 20260509191542 | 99 | 0.0 | 0.0 | 0.00 | 0.00 | 0.00 | 12 | 1009.8 |